Content
SEND FEEDBACK

Daily
Averages
Monthly
Summary
Canada

BRANTFORD, ONTARIO


Home > North America > Canada > Ontario
Elevation: 815 feet     Latitude: 43 08N     Longitude: 080 21W

WEATHER
 
SELECT A DAY
Number of Records: 128,895;   Date Range: 5/15/00 - 7/11/14
 
SHARE

PRINT THIS DATA

[ ← Previous Day ]
WEATHER ALMANAC - FEBRUARY 28, 2013
[ Next Day → ]
[ °C ]   °F
Weather ElementAverageHighLow
Temperature32.6 °F35.2 °F (3:00 pm)30.7 °F (11:00 pm)
Dewpoint28.7 °F30.7 °F (10:00 am)23.7 °F (11:00 pm)
Humidity85.5 %94 % (1:00 am)71 % (3:00 pm)
Barometer29.62 in29.81 in (11:00 pm)29.52 in (4:00 am)
Wind Speed6.4 mph11.5 mph (7:00 pm)
Weather ElementAverage
Wind DirectionWNW (289.6 °)

Weather ElementTotal
Precipitation0.07 in
Heating Degree Days32.1 (Base 65)
Averaged from 26 records on February 28, 2013
WEATHER CONDITIONS BREAKOUT
WIND DIRECTION BREAKOUT
WEATHER BY HOUR - FEBRUARY 28, 2013
[ °C ]   °F
Local TimeTemperatureDewpointHumidityBarometerVisibilityWind DirectionWind SpeedGust SpeedPrecipitationEventsConditions
1:00 AM32.0 °F30.0 °F91 %29.55 inSW (220°)5.8 mph
1:00 AM31.8 °F30.4 °F94 %29.55 inSW (220°)5.8 mph
2:00 AM32.0 °F30.4 °F94 %29.55 inSW (230°)5.8 mph
3:00 AM31.6 °F30.0 °F94 %29.53 inSW (220°)4.6 mph
4:00 AM31.5 °F29.8 °F94 %29.52 inSW (220°)5.8 mph
5:00 AM31.3 °F29.7 °F94 %29.52 inSW (230°)4.6 mph
6:00 AM31.1 °F29.7 °F94 %29.53 inSW (220°)3.5 mph
7:00 AM31.0 °F29.0 °F92 %29.54 inSW (230°)3.5 mph
7:00 AM30.9 °F29.5 °F94 %29.54 inSW (230°)3.5 mph0.01 in
8:00 AM31.1 °F29.7 °F94 %29.55 inSW (220°)2.3 mph0.02 in
9:00 AM31.8 °F30.2 °F94 %29.56 inWSW (250°)3.5 mph0.04 in
10:00 AM32.9 °F30.7 °F92 %29.57 inWNW (290°)3.5 mph
11:00 AM33.4 °F30.6 °F89 %29.57 inNW (320°)4.6 mph
12:00 PM34.2 °F30.6 °F87 %29.59 inNNW (330°)5.8 mph
1:00 PM35.0 °F30.0 °F76 %29.59 inNNW (340°)6.9 mph
1:00 PM34.7 °F30.2 °F84 %29.59 inNNW (340°)6.9 mph
2:00 PM34.9 °F29.7 °F81 %29.60 inNorth (350°)6.9 mph
3:00 PM35.2 °F26.6 °F71 %29.62 inNNW (340°)6.9 mph
4:00 PM34.5 °F27.1 °F74 %29.65 inNorth (350°)6.9 mph
5:00 PM34.0 °F29.1 °F82 %29.68 inNNW (330°)9.2 mph
6:00 PM34.0 °F28.0 °F79 %29.70 inNNW (330°)10.4 mph
7:00 PM33.0 °F27.0 °F72 %29.74 inNNW (340°)11.5 mph
8:00 PM31.5 °F26.4 °F82 %29.76 inNNW (340°)11.5 mph
9:00 PM32.0 °F25.2 °F76 %29.78 inNNW (340°)9.2 mph
10:00 PM31.3 °F24.1 °F75 %29.80 inNorth (350°)9.2 mph
11:00 PM30.7 °F23.7 °F75 %29.81 inNorth (350°)8.1 mph
Hourly data recorded from CXDI, located miles away from Brantford, Ontario







STORIES FROM OUR PARTNERS